EW9318 Weather Reports


Display with metric or nautical units.
time (UTC)temp
F
wind
direction
speed
MPH
gust
MPH
rain 1hr
in
rain 24hr
in
rain mn
in
humidity
%
barometer
mb
20260504231518 73 226 8.0 14.0 0.00 0.00 0.00 37 996.2
20260504231016 73 240 8.0 15.0 0.00 0.00 0.00 37 996.3
20260504230518 73 226 9.0 15.0 0.00 0.00 0.00 37 996.3
20260504230016 74 234 9.0 18.0 0.00 0.00 0.00 37 996.4
20260504225516 74 240 11.0 18.0 0.00 0.00 0.00 36 996.4
20260504225016 74 229 10.0 18.0 0.00 0.00 0.00 36 996.6
20260504224536 74 228 9.0 15.0 0.00 0.00 0.00 37 996.6
20260504224016 74 230 8.0 13.0 0.00 0.00 0.00 37 996.7
20260504223517 74 243 8.0 15.0 0.00 0.00 0.00 37 996.8
20260504223016 74 249 8.0 17.0 0.00 0.00 0.00 36 996.8
20260504222516 74 244 11.0 17.0 0.00 0.00 0.00 36 996.9
20260504222016 74 252 11.0 20.0 0.00 0.00 0.00 37 996.9
20260504221536 74 250 14.0 22.0 0.00 0.00 0.00 36 996.9
20260504221016 74 259 11.0 22.0 0.00 0.00 0.00 36 996.9
20260504220516 74 237 13.0 22.0 0.00 0.00 0.00 36 997.0
20260504220016 74 234 12.0 22.0 0.00 0.00 0.00 37 997.0
20260504215536 74 237 10.0 21.0 0.00 0.00 0.00 37 997.0
20260504215016 74 248 13.0 21.0 0.00 0.00 0.00 37 997.1
20260504214516 74 251 10.0 19.0 0.00 0.00 0.00 37 997.1
20260504214016 74 260 12.0 22.0 0.00 0.00 0.00 35 997.2
20260504213517 74 247 14.0 22.0 0.00 0.00 0.00 37 997.3
20260504213016 74 238 13.0 23.0 0.00 0.00 0.00 36 997.4
20260504212536 74 242 14.0 23.0 0.00 0.00 0.00 35 997.5
20260504212016 73 239 14.0 27.0 0.00 0.00 0.00 37 997.5
20260504211016 73 245 16.0 31.0 0.00 0.00 0.00 37 997.7
20260504210516 74 249 14.0 22.0 0.00 0.00 0.00 36 997.8
20260504210016 74 240 10.0 27.0 0.00 0.00 0.00 38 997.9
20260504205637 74 243 14.0 27.0 0.00 0.00 0.00 37 998.0
20260504205016 74 242 11.0 23.0 0.00 0.00 0.00 38 998.1
20260504204516 73 257 15.0 30.0 0.00 0.00 0.00 37 998.1
20260504204016 73 243 18.0 30.0 0.00 0.00 0.00 36 998.2
20260504203516 74 263 17.0 31.0 0.00 0.00 0.00 34 998.1
20260504203036 74 268 18.0 35.0 0.00 0.00 0.00 34 998.3
20260504202517 74 246 18.0 35.0 0.00 0.00 0.00 34 998.4
20260504202017 74 252 14.0 27.0 0.00 0.00 0.00 33 998.5
20260504201516 74 235 15.0 26.0 0.00 0.00 0.00 34 998.5
20260504201016 74 245 14.0 29.0 0.00 0.00 0.00 34 998.4
20260504200516 73 249 18.0 29.0 0.00 0.00 0.00 33 998.4
20260504200036 74 247 14.0 23.0 0.00 0.00 0.00 34 998.4
20260504195516 74 230 14.0 22.0 0.00 0.00 0.00 32 998.5
20260504195056 74 227 15.0 22.0 0.00 0.00 0.00 32 998.5
20260504194516 74 241 13.0 24.0 0.00 0.00 0.00 32 998.5
20260504194016 74 251 14.0 24.0 0.00 0.00 0.00 33 998.7
20260504193517 74 237 14.0 22.0 0.00 0.00 0.00 32 998.6
20260504193016 74 233 10.0 27.0 0.00 0.00 0.00 34 998.6
20260504192516 74 233 14.0 28.0 0.00 0.00 0.00 32 998.8
20260504192017 73 227 16.0 28.0 0.00 0.00 0.00 31 998.8
20260504191537 73 240 16.0 25.0 0.00 0.00 0.00 34 998.8
20260504191016 73 235 13.0 25.0 0.00 0.00 0.00 35 998.8
20260504190537 73 240 17.0 25.0 0.00 0.00 0.00 33 998.8
20260504190016 74 235 14.0 25.0 0.00 0.00 0.00 32 998.8
20260504185519 74 212 12.0 25.0 0.00 0.00 0.00 34 998.8
20260504185017 74 238 15.0 25.0 0.00 0.00 0.00 32 998.8
20260504184516 73 241 14.0 25.0 0.00 0.00 0.00 30 998.8
20260504184017 74 223 12.0 26.0 0.00 0.00 0.00 29 998.9
20260504183516 73 232 16.0 26.0 0.00 0.00 0.00 29 999.0
20260504183017 74 235 15.0 29.0 0.00 0.00 0.00 29 999.0
20260504182516 74 210 13.0 29.0 0.00 0.00 0.00 31 999.0
20260504182015 74 202 11.0 23.0 0.00 0.00 0.00 32 999.0
20260504181516 73 205 12.0 24.0 0.00 0.00 0.00 31 999.0
20260504181015 73 210 11.0 24.0 0.00 0.00 0.00 32 999.1
20260504180537 72 239 13.0 22.0 0.00 0.00 0.00 31 999.1
20260504180016 73 225 13.0 21.0 0.00 0.00 0.00 30 999.2
20260504175516 73 233 13.0 21.0 0.00 0.00 0.00 30 999.2
20260504175015 73 218 11.0 22.0 0.00 0.00 0.00 33 999.2
20260504174517 72 230 13.0 23.0 0.00 0.00 0.00 31 999.3
20260504174016 73 218 12.0 28.0 0.00 0.00 0.00 31 999.4
20260504173516 72 220 14.0 28.0 0.00 0.00 0.00 30 999.4
20260504173016 72 235 12.0 17.0 0.00 0.00 0.00 31 999.5
20260504172556 72 228 9.0 27.0 0.00 0.00 0.00 32 999.6
20260504172015 72 233 13.0 27.0 0.00 0.00 0.00 30 999.7
20260504171537 72 232 11.0 22.0 0.00 0.00 0.00 31 999.7
20260504171015 72 227 12.0 22.0 0.00 0.00 0.00 30 1000.0
20260504170535 72 211 12.0 21.0 0.00 0.00 0.00 31 999.9
20260504151015 65 223 9.0 22.0 0.00 0.00 0.00 49 1001.2
20260504150515 65 226 10.0 22.0 0.00 0.00 0.00 51 1001.2
20260504141015 60 217 6.0 13.0 0.00 0.00 0.00 62 1001.9
20260504140515 60 218 5.0 11.0 0.00 0.00 0.00 63 1001.9
20260504130515 55 235 8.0 14.0 0.00 0.00 0.00 72 1002.4
20260504130155 54 243 6.0 14.0 0.00 0.00 0.00 73 1002.5
20260504110557 45 209 2.0 5.0 0.00 0.00 0.00 88 1002.1
20260504100517 45 0.0 0.0 0.00 0.00 0.00 85 1001.9
20260504081518 48 157 1.0 2.0 0.00 0.00 0.00 79 1002.6
20260504081037 48 170 0.0 2.0 0.00 0.00 0.00 79 1002.6
20260504080516 49 183 0.0 4.0 0.00 0.00 0.00 78 1002.6
20260504050516 50 185 5.0 11.0 0.00 0.00 0.00 76 1004.8
20260504050016 50 189 5.0 11.0 0.00 0.00 0.00 77 1004.8
20260504045516 50 179 5.0 11.0 0.00 0.00 0.00 77 1004.8
20260504045016 50 182 4.0 9.0 0.00 0.00 0.00 77 1004.9
20260504044516 50 186 4.0 9.0 0.00 0.00 0.00 77 1004.9
20260504044016 50 172 4.0 11.0 0.00 0.00 0.00 77 1005.0
20260504043516 50 166 5.0 11.0 0.00 0.00 0.00 77 1005.0
20260504043016 50 168 4.0 9.0 0.00 0.00 0.00 77 1005.1
20260504042516 50 185 4.0 16.0 0.00 0.00 0.00 77 1005.1
20260504042056 49 173 5.0 16.0 0.00 0.00 0.00 78 1005.1
20260504041537 49 174 4.0 11.0 0.00 0.00 0.00 77 1005.0
20260504041016 49 168 4.0 11.0 0.00 0.00 0.00 78 1005.1
20260504040516 49 169 5.0 10.0 0.00 0.00 0.00 78 1005.2
20260504040016 49 155 3.0 10.0 0.00 0.00 0.00 77 1005.2
20260504035517 49 158 3.0 10.0 0.00 0.00 0.00 77 1005.3
20260504035016 49 160 3.0 10.0 0.00 0.00 0.00 77 1005.3
20260504034536 49 168 3.0 9.0 0.00 0.00 0.00 77 1005.3
20260504034017 49 164 3.0 10.0 0.00 0.00 0.00 77 1005.3
20260504033516 49 166 3.0 10.0 0.00 0.00 0.00 77 1005.4
20260504033017 49 157 3.0 9.0 0.00 0.00 0.00 77 1005.5
20260504032516 49 178 3.0 9.0 0.00 0.00 0.00 76 1005.4
20260504032016 49 160 4.0 9.0 0.00 0.00 0.00 76 1005.5
20260504031516 49 169 4.0 9.0 0.00 0.00 0.00 76 1005.5
20260504031016 49 156 4.0 11.0 0.00 0.00 0.00 76 1005.5
20260504030516 49 165 5.0 11.0 0.00 0.00 0.00 76 1005.6
20260504030016 49 161 4.0 10.0 0.00 0.00 0.00 75 1005.6
20260504025516 49 164 4.0 10.0 0.00 0.00 0.00 75 1005.6
20260504025016 50 165 4.0 10.0 0.00 0.00 0.00 75 1005.4
20260504024517 50 164 3.0 10.0 0.00 0.00 0.00 74 1005.4
20260504024016 50 156 5.0 10.0 0.00 0.00 0.00 74 1005.4
20260504023516 50 155 5.0 9.0 0.00 0.00 0.00 74 1005.3
20260504023016 50 162 3.0 9.0 0.00 0.00 0.00 73 1005.4
20260504022536 50 166 4.0 10.0 0.00 0.00 0.00 73 1005.4
20260504022016 50 159 5.0 13.0 0.00 0.00 0.00 73 1005.3
20260504021516 50 173 6.0 14.0 0.00 0.00 0.00 72 1005.4
20260504021016 50 162 5.0 14.0 0.00 0.00 0.00 72 1005.4
20260504020517 51 172 4.0 11.0 0.00 0.00 0.00 72 1005.5
20260504020017 51 159 4.0 10.0 0.00 0.00 0.00 71 1005.4
20260504015516 51 168 5.0 10.0 0.00 0.00 0.00 71 1005.5
20260504015016 51 169 5.0 10.0 0.00 0.00 0.00 71 1005.4
20260504014516 51 162 5.0 12.0 0.00 0.00 0.00 70 1005.3
20260504014017 51 167 6.0 12.0 0.00 0.00 0.00 70 1005.2
20260504013516 51 163 6.0 15.0 0.00 0.00 0.00 70 1005.2
20260504013016 51 156 7.0 15.0 0.00 0.00 0.00 69 1005.1
20260504012517 51 165 6.0 15.0 0.00 0.00 0.00 69 1005.1
20260504012016 52 171 7.0 16.0 0.00 0.00 0.00 69 1005.2
20260504011517 52 170 7.0 16.0 0.00 0.00 0.00 68 1005.2
20260504011016 52 170 8.0 16.0 0.00 0.00 0.00 68 1005.2
20260504010516 52 171 7.0 16.0 0.00 0.00 0.00 68 1005.3
20260504010036 52 173 7.0 14.0 0.00 0.00 0.00 68 1005.3
20260504005517 52 173 7.0 15.0 0.00 0.00 0.00 67 1005.3
20260504005017 52 171 7.0 15.0 0.00 0.00 0.00 66 1005.3
20260504004516 52 173 7.0 17.0 0.00 0.00 0.00 66 1005.3
20260504004016 53 179 8.0 17.0 0.00 0.00 0.00 66 1005.3
20260504003516 53 168 7.0 16.0 0.00 0.00 0.00 65 1005.4
20260504003016 53 171 9.0 17.0 0.00 0.00 0.00 65 1005.3
20260504002516 53 176 8.0 17.0 0.00 0.00 0.00 64 1005.4
20260504002017 53 181 9.0 17.0 0.00 0.00 0.00 64 1005.5
20260504001516 53 176 6.0 17.0 0.00 0.00 0.00 64 1005.5
20260504001016 54 183 7.0 17.0 0.00 0.00 0.00 63 1005.6
20260504000536 54 191 8.0 17.0 0.00 0.00 0.00 62 1005.7
20260504000037 54 176 9.0 18.0 0.00 0.00 0.00 62 1005.7
20260503235516 54 190 7.0 25.0 0.00 0.00 0.00 62 1005.8
20260503235017 54 179 9.0 25.0 0.00 0.00 0.00 61 1005.7
20260503234537 55 188 10.0 19.0 0.00 0.00 0.00 61 1005.8
20260503234016 55 181 7.0 18.0 0.00 0.00 0.00 60 1005.8
20260503233537 55 188 9.0 22.0 0.00 0.00 0.00 60 1005.8
20260503233036 55 195 12.0 22.0 0.00 0.00 0.00 59 1005.8
20260503232517 55 192 10.0 21.0 0.00 0.00 0.00 59 1005.8
20260503232037 56 193 10.0 19.0 0.00 0.00 0.00 58 1005.9